Previsão horária em Al Khiyam

Hoje, 21 Janeiro, Quinta-feira

Tempo Temperatura Precipitação Vento Pressão Humidade
00:00 +3°C° 0 mm 2 m/s 717 mmHg 75%
01:00 +3°C° 0 mm 2 m/s 717 mmHg 76%
02:00 +4°C° 0 mm 2 m/s 717 mmHg 80%
03:00 +4°C° 0 mm 2 m/s 718 mmHg 78%
04:00 +3°C° 0 mm 3 m/s 718 mmHg 76%
05:00 +3°C° 0 mm 3 m/s 718 mmHg 75%
06:00 +4°C° 0 mm 2 m/s 719 mmHg 72%
07:00 +5°C° 0 mm 2 m/s 719 mmHg 69%
08:00 +7°C° 0 mm 1 m/s 720 mmHg 67%
09:00 +7°C° 0 mm 2 m/s 720 mmHg 63%
10:00 +8°C° 0 mm 2 m/s 721 mmHg 58%
11:00 +9°C° 0 mm 3 m/s 721 mmHg 53%
12:00 +9°C° 0 mm 3 m/s 721 mmHg 54%
13:00 +9°C° 0 mm 3 m/s 720 mmHg 55%
14:00 +10°C° 0 mm 3 m/s 720 mmHg 56%
15:00 +8°C° 0 mm 2 m/s 720 mmHg 62%
16:00 +7°C° 0 mm 2 m/s 720 mmHg 69%
17:00 +7°C° 0 mm 1 m/s 720 mmHg 75%
18:00 +7°C° 0 mm 1 m/s 720 mmHg 74%
19:00 +6°C° 0 mm 1 m/s 720 mmHg 74%
20:00 +6°C° 0 mm 1 m/s 720 mmHg 73%
21:00 +6°C° 0 mm 1 m/s 720 mmHg 72%
22:00 +6°C° 0 mm 1 m/s 720 mmHg 71%
23:00 +6°C° 0 mm 1 m/s 720 mmHg 70%

Amanhã, 22 Janeiro, Sexta-feira

Tempo Temperatura Precipitação Vento Pressão Humidade
00:00 +5°C° 0 mm 2 m/s 719 mmHg 68%
01:00 +4°C° 0 mm 2 m/s 719 mmHg 66%
02:00 +4°C° 0 mm 2 m/s 719 mmHg 65%
03:00 +4°C° 0 mm 2 m/s 719 mmHg 63%
04:00 +3°C° 0 mm 3 m/s 719 mmHg 61%
05:00 +3°C° 0 mm 3 m/s 719 mmHg 59%
06:00 +4°C° 0 mm 3 m/s 719 mmHg 58%
07:00 +5°C° 0 mm 3 m/s 719 mmHg 57%
08:00 +7°C° 0 mm 3 m/s 719 mmHg 56%
09:00 +7°C° 0 mm 4 m/s 719 mmHg 51%
10:00 +8°C° 0 mm 4 m/s 719 mmHg 46%
11:00 +10°C° 0 mm 5 m/s 720 mmHg 41%
12:00 +11°C° 0 mm 4 m/s 719 mmHg 42%
13:00 +11°C° 0 mm 3 m/s 718 mmHg 44%
14:00 +12°C° 0 mm 3 m/s 717 mmHg 45%
15:00 +10°C° 0 mm 3 m/s 717 mmHg 50%
16:00 +9°C° 0 mm 2 m/s 717 mmHg 56%
17:00 +7°C° 0 mm 2 m/s 717 mmHg 61%
18:00 +7°C° 0 mm 3 m/s 716 mmHg 57%
19:00 +7°C° 0 mm 3 m/s 716 mmHg 52%
20:00 +7°C° 0 mm 3 m/s 716 mmHg 48%
21:00 +5°C° 0 mm 4 m/s 716 mmHg 46%
22:00 +5°C° 0 mm 4 m/s 716 mmHg 44%
23:00 +5°C° 0 mm 4 m/s 716 mmHg 41%

Depois de amanhã, 23 Janeiro, Sábado

Tempo Temperatura Precipitação Vento Pressão Humidade
00:00 +5°C° 0 mm 4 m/s 716 mmHg 40%
01:00 +5°C° 0 mm 4 m/s 715 mmHg 39%
02:00 +5°C° 0 mm 4 m/s 715 mmHg 38%
03:00 +5°C° 0 mm 4 m/s 715 mmHg 37%
04:00 +5°C° 0 mm 4 m/s 715 mmHg 37%
05:00 +5°C° 0 mm 4 m/s 715 mmHg 36%
06:00 +5°C° 0 mm 4 m/s 715 mmHg 38%
07:00 +6°C° 0 mm 4 m/s 715 mmHg 39%
08:00 +7°C° 0 mm 4 m/s 716 mmHg 40%
09:00 +8°C° 0 mm 4 m/s 716 mmHg 37%
10:00 +11°C° 0 mm 4 m/s 716 mmHg 34%
11:00 +12°C° 0 mm 4 m/s 716 mmHg 31%
12:00 +12°C° 0 mm 3 m/s 715 mmHg 32%
13:00 +13°C° 0 mm 3 m/s 715 mmHg 34%
14:00 +13°C° 0 mm 3 m/s 714 mmHg 35%
15:00 +11°C° 0 mm 3 m/s 714 mmHg 41%
16:00 +10°C° 0 mm 2 m/s 714 mmHg 47%
17:00 +8°C° 0 mm 2 m/s 713 mmHg 53%
18:00 +8°C° 0 mm 3 m/s 714 mmHg 49%
19:00 +7°C° 0 mm 3 m/s 714 mmHg 45%
20:00 +7°C° 0 mm 3 m/s 714 mmHg 41%
21:00 +7°C° 0 mm 3 m/s 714 mmHg 40%
22:00 +7°C° 0 mm 3 m/s 714 mmHg 39%
23:00 +7°C° 0 mm 3 m/s 714 mmHg 38%

24 Janeiro, Domingo

Tempo Temperatura Precipitação Vento Pressão Humidade
00:00 +7°C° 0 mm 3 m/s 714 mmHg 38%
01:00 +6°C° 0 mm 4 m/s 714 mmHg 37%
02:00 +6°C° 0 mm 4 m/s 713 mmHg 37%
03:00 +7°C° 0 mm 3 m/s 713 mmHg 37%
04:00 +5°C° 0 mm 3 m/s 713 mmHg 37%
05:00 +5°C° 0 mm 3 m/s 713 mmHg 37%
06:00 +7°C° 0 mm 3 m/s 714 mmHg 40%
07:00 +8°C° 0 mm 3 m/s 714 mmHg 42%
08:00 +9°C° 0 mm 3 m/s 715 mmHg 44%
09:00 +10°C° 0 mm 3 m/s 715 mmHg 41%
10:00 +12°C° 0 mm 3 m/s 715 mmHg 38%
11:00 +13°C° 0 mm 3 m/s 715 mmHg 35%
12:00 +14°C° 0 mm 3 m/s 715 mmHg 35%
13:00 +14°C° 0 mm 3 m/s 714 mmHg 36%
14:00 +14°C° 0 mm 3 m/s 714 mmHg 37%
15:00 +13°C° 0 mm 2 m/s 714 mmHg 45%
16:00 +10°C° 0 mm 2 m/s 713 mmHg 53%
17:00 +10°C° 0 mm 1 m/s 713 mmHg 62%
18:00 +9°C° 0 mm 1 m/s 713 mmHg 59%
19:00 +8°C° 0 mm 2 m/s 714 mmHg 57%
20:00 +8°C° 0 mm 2 m/s 714 mmHg 55%
21:00 +8°C° 0 mm 2 m/s 714 mmHg 53%
22:00 +7°C° 0 mm 2 m/s 714 mmHg 51%
23:00 +7°C° 0 mm 2 m/s 714 mmHg 48%

25 Janeiro, Segunda-feira

Tempo Temperatura Precipitação Vento Pressão Humidade
00:00 +7°C° 0 mm 2 m/s 713 mmHg 48%
01:00 +7°C° 0 mm 2 m/s 713 mmHg 47%
02:00 +7°C° 0 mm 2 m/s 713 mmHg 46%
03:00 +7°C° 0 mm 1 m/s 713 mmHg 46%
04:00 +7°C° 0 mm 1 m/s 713 mmHg 46%
05:00 +7°C° 0 mm 1 m/s 713 mmHg 46%
06:00 +8°C° 0 mm 1 m/s 713 mmHg 48%
07:00 +10°C° 0 mm 1 m/s 714 mmHg 51%
08:00 +11°C° 0 mm 1 m/s 715 mmHg 53%
09:00 +12°C° 0 mm 1 m/s 715 mmHg 48%
10:00 +14°C° 0 mm 1 m/s 715 mmHg 43%
11:00 +15°C° 0 mm 1 m/s 715 mmHg 38%
12:00 +15°C° 0 mm 2 m/s 715 mmHg 39%
13:00 +15°C° 0 mm 2 m/s 715 mmHg 41%
14:00 +16°C° 0 mm 2 m/s 714 mmHg 42%
15:00 +14°C° 0 mm 1 m/s 714 mmHg 52%
16:00 +12°C° 0 mm 1 m/s 714 mmHg 61%
17:00 +11°C° 0 mm 1 m/s 714 mmHg 71%
18:00 +10°C° 0 mm 1 m/s 714 mmHg 70%
19:00 +10°C° 0 mm 1 m/s 714 mmHg 70%
20:00 +9°C° 0 mm 1 m/s 714 mmHg 69%
21:00 +9°C° 0 mm 1 m/s 714 mmHg 67%
22:00 +9°C° 0 mm 1 m/s 714 mmHg 65%
23:00 +9°C° 0 mm 1 m/s 714 mmHg 63%

26 Janeiro, Terça-feira

Tempo Temperatura Precipitação Vento Pressão Humidade
00:00 +9°C° 0 mm 1 m/s 714 mmHg 61%
01:00 +9°C° 0 mm 1 m/s 714 mmHg 59%
02:00 +9°C° 0 mm 1 m/s 714 mmHg 58%
03:00 +9°C° 0 mm 1 m/s 714 mmHg 56%
04:00 +9°C° 0 mm 1 m/s 713 mmHg 55%
05:00 +9°C° 0 mm 1 m/s 713 mmHg 54%
06:00 +10°C° 0 mm 1 m/s 714 mmHg 55%
07:00 +11°C° 0 mm 1 m/s 714 mmHg 56%
08:00 +12°C° 0 mm 1 m/s 714 mmHg 58%
09:00 +13°C° 0 mm 1 m/s 715 mmHg 51%
10:00 +15°C° 0 mm 1 m/s 715 mmHg 44%
11:00 +16°C° 0 mm 1 m/s 715 mmHg 37%
12:00 +18°C° 0 mm 1 m/s 714 mmHg 39%
13:00 +18°C° 0 mm 1 m/s 714 mmHg 41%
14:00 +17°C° 0 mm 2 m/s 713 mmHg 43%
15:00 +15°C° 0 mm 1 m/s 713 mmHg 51%
16:00 +14°C° 0 mm 1 m/s 712 mmHg 59%
17:00 +12°C° 0 mm 1 m/s 712 mmHg 68%
18:00 +12°C° 0 mm 1 m/s 712 mmHg 66%
19:00 +12°C° 0 mm 1 m/s 712 mmHg 64%
20:00 +12°C° 0 mm 1 m/s 712 mmHg 61%
21:00 +12°C° 0 mm 2 m/s 712 mmHg 58%
22:00 +10°C° 0 mm 2 m/s 711 mmHg 55%
23:00 +10°C° 0 mm 2 m/s 711 mmHg 52%
Mostrar mais

Necessitamos do seu Consentimento

A Meteoprog e os seus Fornecedores de Serviços podem armazenar e aceder a dados pessoais como cookies, identificadores do dispositivo ou outras tecnologias semelhantes existentes no seu dispositivo e processar estes dados para personalizar conteúdos e anúncios, assim como funcionalidades nas redes sociais e análise de tráfego.

  • Armazenar e/ou aceder a informações no seu dispositivo

    Os cookies, identificadores do dispositivo ou outras informações podem ser armazenados ou acedidos no seu dispositivo, para os fins acima indicados.

  • Anúncios e conteúdos personalizados, medição de anúncios e conteúdos, dados sobre o público-alvo e desenvolvimento de produtos

    Os anúncios e os conteúdos podem ser personalizados com base num perfil. Podem ser adicionados dados adicionais para uma maior personalização dos anúncios e dos conteúdos. A eficácia dos anúncios e dos conteúdos pode ser medida. Podem ser obtidas informações sobre o público que visualizou os anúncios e os conteúdos. Estes dados podem ser usados para desenvolver ou melhorar sistemas, softwares ou a experiência do utilizador.

Ao clicar em "Eu concordo”, permitirá o uso de cookies, identificadores do dispositivo e web beacons mencionados ou outras tecnologias semelhantes. As configurações do navegador do seu dispositivo podem ser alteradas.

Para certos fins, podem ser invocados interesses legítimos ao invés de consentimento. Pode ler mais informação sobre este assunto na nossa Política de Privacidade e Cookies.